This is the latest recevied weather packets stored in our database for station/object K4OAM-13. If no packets are shown the sender has not sent any weather packets the latest 10 day(s).
| Time | Temp. | Humidity | Pressure | Rain* | Wind** | Luminosity | Snow |
|---|---|---|---|---|---|---|---|
| 1787393337 | -1.67° C | 92% | 1026.7 hPa | - | - | - | - |
| 1787392737 | -1.11° C | 91% | 1026.7 hPa | - | - | - | - |
| 1787392137 | -1.67° C | 93% | 1026.6 hPa | - | - | - | - |
| 1787391537 | -1.11° C | 92% | 1026.6 hPa | - | - | - | - |
| 1787390937 | -0.56° C | 90% | 1026.2 hPa | - | - | - | - |
| 1787390337 | -0.56° C | 90% | 1026.1 hPa | - | - | - | - |
| 1787389737 | -1.11° C | 92% | 1026.3 hPa | - | - | - | - |
| 1787389137 | -0.56° C | 91% | 1026.5 hPa | - | - | - | - |
| 1787388537 | -1.11° C | 91% | 1026.7 hPa | - | - | - | - |
| 1787387937 | -1.11° C | 92% | 1026.8 hPa | - | - | - | - |
| 1787387337 | -1.11° C | 92% | 1026.9 hPa | - | - | - | - |
| 1787386737 | -1.11° C | 91% | 1027.1 hPa | - | - | - | - |
| 1787386137 | -1.11° C | 90% | 1027 hPa | - | - | - | - |
| 1787385537 | -1.11° C | 90% | 1027.1 hPa | - | - | - | - |
| 1787384937 | -1.11° C | 90% | 1027.2 hPa | - | - | - | - |
| 1787384337 | -1.11° C | 93% | 1027.2 hPa | - | - | - | - |
| 1787383737 | -1.11° C | 92% | 1027.4 hPa | - | - | - | - |
| 1787383137 | -1.67° C | 91% | 1027.8 hPa | - | - | - | - |
| 1787382537 | -1.11° C | 90% | 1027.7 hPa | - | - | - | - |
| 1787381937 | -1.11° C | 90% | 1027.6 hPa | - | - | - | - |
| 1787381337 | -1.11° C | 92% | 1027.7 hPa | - | - | - | - |
| 1787380737 | -1.67° C | 92% | 1028 hPa | - | - | - | - |
| 1787380137 | -1.11° C | 91% | 1028 hPa | - | - | - | - |
| 1787379537 | -1.11° C | 92% | 1028 hPa | - | - | - | - |
| 1787378937 | -1.11° C | 93% | 1028 hPa | - | - | - | - |
* Rain since midnight (hover to see other rain measurements)
** Current wind speed in m/s (hover to see current wind gust speed)